TimeCST,TemperatureF,Dew PointF,Humidity,Sea Level PressureIn,VisibilityMPH,Wind Direction,Wind SpeedMPH,Gust SpeedMPH,PrecipitationIn,Events,Conditions,WindDirDegrees,DateUTC
12:51 AM,32.0,28.9,88,30.51,9.0,North,13.8,-,0.00,Snow,Light Snow,360,2013-11-23 06:51:00
1:11 AM,32.0,30.2,93,30.46,8.0,North,12.7,-,0.02,Rain,Light Freezing Rain,350,2013-11-23 07:11:00
1:19 AM,32.0,30.2,93,30.45,7.0,North,13.8,-,0.02,Snow,Light Snow,360,2013-11-23 07:19:00
1:51 AM,32.0,30.0,92,30.51,9.0,North,12.7,-,0.02,Snow,Light Snow,350,2013-11-23 07:51:00
2:31 AM,30.2,28.4,93,30.46,10.0,North,12.7,-,0.00,,Overcast,10,2013-11-23 08:31:00
2:38 AM,30.2,28.4,93,30.46,10.0,North,13.8,-,0.00,,Overcast,10,2013-11-23 08:38:00
2:51 AM,32.0,28.9,88,30.51,10.0,North,15.0,-,0.00,,Overcast,360,2013-11-23 08:51:00
3:51 AM,32.0,28.9,88,30.52,10.0,North,16.1,-,N/A,,Overcast,360,2013-11-23 09:51:00
4:51 AM,30.9,28.0,89,30.52,9.0,North,15.0,-,0.00,,Overcast,350,2013-11-23 10:51:00
5:51 AM,30.9,28.0,89,30.53,10.0,North,15.0,-,N/A,,Overcast,10,2013-11-23 11:51:00
6:36 AM,30.2,28.4,93,30.49,7.0,North,15.0,-,N/A,,Overcast,360,2013-11-23 12:36:00
6:51 AM,30.9,28.0,89,30.55,7.0,North,13.8,-,N/A,,Overcast,360,2013-11-23 12:51:00
7:51 AM,30.9,28.9,92,30.56,4.0,North,12.7,-,N/A,,Overcast,360,2013-11-23 13:51:00
8:51 AM,30.9,28.9,92,30.57,5.0,North,13.8,-,N/A,,Overcast,360,2013-11-23 14:51:00
9:51 AM,32.0,28.9,88,30.59,3.0,North,13.8,-,N/A,,Overcast,360,2013-11-23 15:51:00
10:01 AM,32.0,30.2,93,30.53,3.0,North,16.1,-,0.00,Rain,Light Freezing Rain,360,2013-11-23 16:01:00
10:51 AM,32.0,30.0,92,30.58,7.0,North,12.7,-,0.00,,Overcast,10,2013-11-23 16:51:00
11:51 AM,32.0,30.0,92,30.57,8.0,North,15.0,-,N/A,,Overcast,10,2013-11-23 17:51:00
12:44 PM,33.8,30.2,87,30.49,2.5,NNE,13.8,-,0.00,Rain,Light Freezing Rain,20,2013-11-23 18:44:00
12:51 PM,33.1,30.9,92,30.53,2.5,North,11.5,-,0.00,Rain,Light Freezing Rain,10,2013-11-23 18:51:00
1:42 PM,33.8,30.2,87,30.47,3.0,NNE,15.0,-,0.00,Rain,Light Freezing Rain,20,2013-11-23 19:42:00
1:51 PM,33.1,30.9,92,30.51,2.5,North,12.7,-,0.00,Rain,Light Rain,10,2013-11-23 19:51:00
2:00 PM,33.8,30.2,87,30.47,3.0,NNE,16.1,-,0.00,Rain,Light Rain,20,2013-11-23 20:00:00
2:51 PM,34.0,30.9,89,30.51,5.0,North,16.1,-,0.00,,Overcast,10,2013-11-23 20:51:00
3:15 PM,33.8,30.2,87,30.47,10.0,NNE,15.0,-,N/A,,Overcast,20,2013-11-23 21:15:00
3:30 PM,33.8,30.2,87,30.47,10.0,North,10.4,-,N/A,,Overcast,10,2013-11-23 21:30:00
3:51 PM,34.0,30.0,85,30.51,10.0,NNE,11.5,-,N/A,,Overcast,20,2013-11-23 21:51:00
4:51 PM,33.1,30.0,89,30.51,6.0,NNE,17.3,-,N/A,,Overcast,30,2013-11-23 22:51:00
5:51 PM,34.0,28.9,82,30.50,10.0,NNE,16.1,23.0,N/A,,Overcast,30,2013-11-23 23:51:00
6:51 PM,34.0,28.0,79,30.51,10.0,NNE,12.7,-,N/A,,Overcast,20,2013-11-24 00:51:00
7:51 PM,35.1,27.0,72,30.54,10.0,NNE,9.2,-,N/A,,Overcast,20,2013-11-24 01:51:00
8:51 PM,34.0,26.1,73,30.54,10.0,NNE,13.8,-,0.00,,Overcast,30,2013-11-24 02:51:00
9:51 PM,34.0,25.0,70,30.55,10.0,NNE,11.5,21.9,0.00,,Overcast,20,2013-11-24 03:51:00
10:51 PM,33.1,25.0,72,30.56,10.0,NNE,11.5,20.7,N/A,,Overcast,20,2013-11-24 04:51:00
11:51 PM,32.0,28.0,85,30.57,7.0,NNE,11.5,-,0.00,,Overcast,30,2013-11-24 05:51:00